Showing default

NOAA 3, 6920

Orbit data source: Space-Track

NOAA 3, 6920 is a payload satellite owned by NOAA (US) in SSO that was launched on Tue, 06 Nov 1973 UTC via a DELTA 0300 launch vehicle from the Air Force Western Test Range (AFWTR). Payloads include a variety of satellites, spacecraft, and rockets equipped with specific instruments for various scientific and technological missions. These include communications satellites like Starlink; space stations such as the ISS; scientific satellites like the Hubble; Earth observation satellites from companies like Planet Labs, Umbra, and HawkEye 360; GPS; miniature CubeSats for education and research; and military/defense satellites.

Loading next visibility...
NOAA 3 details
Identifier
6920, 1973-086A
Orbit
SSO
Last TLE update11 hours ago
Origin
Flag of USNOAA (US)
ManufacturerRCA/East Windsor
MissionNon-operational Civil Weather
Bus & MotorTIROS M, Unknown motor
Mass340 kg wet, 340 kg dry
Launch date (UTC)
1973-11-06 (51 years ago)
Launch vehicle
DELTA 0300
Launch site
Air Force Western Test Range (AFWTR)
Object type
Payload
Rocket body
Debris
Shape & HBRHex Poly + 3 Pan, 1.25 m
Radar Cross Section1.292 m², Large (>1 m²)

Expand to show TLE details & history

TLE from 11 hours ago
0 NOAA 3
1 06920U 73086A   25018.48232279 -.00000040  00000-0  48340-4 0  9992
2 06920 102.2881  22.4214 0006472 350.6255 133.1094 12.40377450318085
Epoch: 2025-01-18T11:34Z
Definitive object data (Epoch: 2025-01-18T11:34:32.689Z)
Latitude54.39124°
Longitude-71.72824°
Altitude1,517.224 km
Speed7.11 km/s
True Right ascension14h 40m 09s
True Declination54° 14' 38"
Sunlit
Object was in daylight at TLE epoch
Visualization TLE readout
Latitude70.10519°
Longitude54.33685°
Altitude1,516.439 km
Speed7.113 km/s
Apparent Right ascension12h 41m 32s
Apparent Declination55° 10' 08"
Sunlit
Object is in daylight
Visualization observer readout
Local Sidereal Time23:49:17
Azimuth352.544° N
Elevation5.738°
Doppler factor1
Orbital elements
Apogee altitude1,507.695 km
Perigee altitude1,497.495 km
Semi-major axis7,880.732 km
Eccentricity0.0006472
Inclination102.2881°
RAAN22.4214°
Arg. of periapsis350.6255°
True anomaly133.16351°
Mean anomaly133.1094°
Eccentric anomaly133.13646°
Mean motion3.10237 °/min
BSTAR0.00004834
Orbital period116.04 mins
Loading maneuver chart data...
Loading historical data...
Loading historical data...
Loading historical data...
Loading historical data...
Loading historical data...
Loading historical data...
Loading historical data...

NOAA 3 Visibility forecast

Observer location: undefined°, undefined

Span
Click to sort rows by Start time (UTC) header in descending order
Start Az.
Max El. time (UTC)
Max El. Az.
Max El.
End time (UTC)
End Az.
15 mins2025-01-19 00:32:22.087Z184.177° SSW2025-01-19 00:40:22.087Z263.698° W37.893°2025-01-19 00:47:22.087Z329.775° NNW
15 mins2025-01-19 12:42:22.087Z26.105° NE2025-01-19 12:49:22.087Z90.17° ESE41.378°2025-01-19 12:57:22.087Z183.357° SSW
12 mins2025-01-19 14:37:22.087Z355.012° N2025-01-19 14:43:22.087Z300.445° NW27.879°2025-01-19 14:49:22.087Z249.453° W
10 mins2025-01-19 21:57:22.087Z87.398° E2025-01-19 22:01:22.087Z55.217° ENE20.11°2025-01-19 22:07:22.087Z8.16° NNE
|